Date,TemperatureHighF,TemperatureAvgF,TemperatureLowF,DewpointHighF,DewpointAvgF,DewpointLowF,HumidityHigh,HumidityAvg,HumidityLow,PressureMaxIn,PressureMinIn,WindSpeedMaxMPH,WindSpeedAvgMPH,GustSpeedMaxMPH,PrecipitationSumIn
2013-1-1,26,19,10,24,14,6,92,81,65,30.01,29.86,0,0,0,0.00
2013-1-2,32,15,6,15,9,3,87,76,45,30.03,29.95,0,0,0,0.00
2013-1-3,40,27,16,29,21,10,86,77,63,30.14,29.94,9,2,9,0.00
2013-1-4,41,27,14,26,20,-12,89,75,50,30.17,30.06,12,4,12,0.00
2013-1-5,45,34,24,31,25,19,82,72,55,30.07,29.90,11,4,11,0.00
2013-1-6,36,30,19,31,24,17,90,78,66,30.14,29.80,21,6,21,0.00
2013-1-7,46,30,19,27,23,16,93,77,43,30.16,29.93,11,3,11,0.00
2013-1-8,56,38,28,35,29,22,89,71,35,29.99,29.88,10,4,10,0.00
2013-1-9,56,43,34,39,36,29,90,76,50,30.26,29.92,10,3,10,0.00
2013-1-10,55,43,34,55,37,26,99,81,61,30.25,29.57,17,6,17,3.27
2013-1-11,64,55,50,58,50,-42,99,84,62,29.65,29.52,17,6,17,7.65
2013-1-12,62,47,31,52,43,29,96,86,68,29.74,29.58,21,6,21,0.50
2013-1-13,31,24,17,30,21,12,95,87,80,30.10,29.65,0,0,0,0.00
2013-1-14,29,20,15,19,14,10,88,78,64,30.24,30.10,0,0,0,0.00
2013-1-15,31,23,15,23,18,12,90,81,66,30.19,29.88,0,0,0,0.00
2013-1-16,44,31,18,26,22,17,94,72,42,29.89,29.76,14,3,14,0.00
2013-1-17,39,32,22,30,25,19,90,76,58,30.23,29.87,19,5,19,0.00
2013-1-18,47,35,22,31,26,19,92,73,45,30.25,29.87,17,6,17,0.00
2013-1-19,59,45,36,39,33,29,79,64,42,29.89,29.65,17,7,17,0.00
2013-1-20,39,25,20,31,15,9,81,64,49,30.11,29.84,20,8,20,0.00
2013-1-21,20,15,10,15,2,-6,80,57,40,30.12,30.01,27,10,27,0.00
2013-1-22,18,12,5,3,-2,-5,67,54,41,30.22,30.11,12,5,12,0.00
2013-1-23,42,26,13,22,12,2,73,57,38,30.13,29.88,24,4,24,0.00
2013-1-24,31,20,10,11,6,0,76,54,37,30.38,30.05,18,5,24,0.00
2013-1-25,42,30,23,23,16,4,74,56,41,30.09,29.83,14,4,14,0.00
2013-1-26,45,27,15,21,14,9,76,59,27,30.17,29.95,53,4,53,0.00
2013-1-27,44,33,25,43,29,-24,98,85,10,30.10,29.74,100,5,100,0.00
2013-1-28,61,54,44,59,53,44,99,94,87,29.75,29.65,17,6,17,0.00
2013-1-29,65,60,52,59,57,-1,98,90,75,29.65,29.22,20,7,20,0.00
2013-1-30,52,46,25,52,43,-18,99,91,65,29.60,29.11,118,7,118,0.00
2013-1-31,32,21,8,19,12,-2,76,67,51,30.08,29.60,26,11,26,0.00
2013-2-1,27,15,5,18,4,-39,84,61,10,30.23,29.97,23,7,23,0.00
2013-2-2,37,26,20,25,19,-18,91,73,10,29.97,29.80,11,4,11,0.00
2013-2-3,35,27,20,26,19,16,93,73,49,29.91,29.75,21,4,21,0.00
2013-2-4,55,35,25,33,25,17,87,69,41,29.81,29.54,17,6,17,0.00
2013-2-5,52,35,27,36,29,24,90,78,53,29.88,29.62,14,4,14,0.00
2013-2-6,57,38,25,33,28,23,95,73,36,30.00,29.85,8,2,8,0.00
2013-2-7,54,41,33,44,36,29,96,83,52,29.85,29.61,21,4,21,0.00
2013-2-8,37,32,29,35,27,24,92,83,72,30.15,29.76,21,8,21,0.00
2013-2-9,48,36,30,32,27,24,81,72,50,30.14,29.82,11,3,11,0.00
2013-2-10,53,44,37,51,42,31,97,90,59,29.83,29.37,17,6,17,0.00
2013-2-11,49,40,30,35,29,25,86,65,45,29.91,29.47,56,7,56,0.00
2013-2-12,44,37,26,31,29,23,92,72,57,29.92,29.69,9,2,9,0.00
2013-2-13,56,43,32,33,30,26,90,62,35,29.69,29.54,16,4,16,0.00
2013-2-14,53,40,34,37,32,29,84,76,50,29.81,29.55,18,5,18,0.00
2013-2-15,38,33,28,31,22,13,85,65,37,30.00,29.80,19,7,19,0.00
2013-2-17,49,38,32,23,22,19,64,53,33,29.91,29.72,9,4,9,0.00
2013-2-18,52,37,34,42,27,22,76,66,59,29.73,29.55,17,5,17,0.00
2013-2-20,25,23,20,17,12,6,81,64,53,30.17,30.05,11,4,11,0.00
2013-2-21,27,20,18,19,16,15,90,84,73,30.09,29.86,14,3,14,0.00
2013-2-25,50,40,34,34,32,29,85,71,47,29.76,29.48,0,0,0,0.00
2013-2-26,36,30,-4,34,28,-5,96,91,83,29.48,29.20,0,0,6,0.00
2013-5-14,94,86,78,60,58,57,51,40,30,29.59,29.55,12,5,12,0.00
2013-5-15,94,82,73,65,63,60,73,54,34,29.65,29.59,9,4,14,0.00
2013-5-16,83,72,63,68,63,58,89,75,48,29.75,29.63,8,2,11,0.00
2013-5-17,84,71,62,66,63,58,96,77,52,29.78,29.72,8,1,8,0.00
2013-5-18,88,74,62,67,64,61,98,74,47,29.81,29.70,9,1,9,0.00
2013-5-19,95,79,64,74,68,62,95,71,48,29.73,29.54,14,2,14,0.00
2013-5-20,90,77,63,70,66,59,98,70,43,29.70,29.51,19,4,21,0.00
2013-5-21,88,73,63,70,65,62,98,77,53,29.67,29.50,11,4,12,0.00
2013-5-22,80,69,63,65,60,54,90,72,42,29.63,29.45,12,4,13,0.00
2013-5-23,64,59,48,60,53,44,90,80,74,30.03,29.62,13,5,13,0.00
2013-5-24,80,58,41,46,40,34,91,57,19,30.18,30.03,9,2,10,0.00
2013-5-25,67,56,50,53,48,42,87,73,47,30.17,29.97,8,2,9,0.00
2013-5-26,68,59,53,62,54,48,93,85,74,30.03,29.81,12,3,12,0.00
2013-5-27,85,68,62,70,63,59,98,86,56,29.84,29.55,16,2,18,0.00
2013-5-28,87,73,-10,72,66,-14,99,80,57,29.72,29.57,15,4,18,0.00
2013-5-29,93,78,64,70,65,60,86,67,44,29.77,29.66,12,3,14,0.00
2013-5-30,90,77,66,72,68,63,93,73,50,29.74,29.62,15,4,21,0.00
2013-5-31,81,71,63,73,67,62,98,87,66,29.71,29.56,14,3,17,0.00
2013-6-1,77,68,63,67,64,57,99,86,66,29.67,29.50,12,4,14,0.00
2013-6-2,68,63,59,60,58,55,91,83,71,29.81,29.63,10,4,13,0.00
2013-6-3,76,62,55,55,51,47,90,68,38,29.90,29.80,8,2,9,0.00
2013-6-4,81,67,52,58,54,49,93,66,42,29.89,29.80,8,2,8,0.00
2013-6-5,92,75,58,63,59,55,90,60,30,29.83,29.64,4,1,6,0.00
2013-6-6,113,74,34,100,62,13,87,69,10,29.65,29.58,10,5,11,0.00
2013-6-7,78,68,58,61,56,14,87,68,10,29.69,29.63,11,5,14,0.00
2013-6-8,63,63,63,57,57,57,80,80,80,29.77,29.68,0,0,0,0.00